COSMOS 1275 DEB, 39967

Orbit data source: Space-Track

COSMOS 1275 DEB, 39967 is space debris in LEO originally from a launch on Thu, 04 Jun 1981 UTC launched from the Plesetsk Missile And Space Complex (PKMTR). Debris objects in space refer to the collection of defunct objects orbiting the Earth. Examples of debris include non-operational satellites, rocket bodies, and fragments generated from explosions, collisions, or faulty payload assembly.

Loading next visibility...
Identifier
39967, 1981-053PD
Orbit
LEO
Country
Flag of CISCIS
Related business
Manufacturer
Unknown
Mission
Spacecraft
Bus & Motor
Unknown
Mass
Unknown
Launch date (UTC)
1981-06-04 (44 years ago)
Launch vehicle
Unknown
Launch site
Plesetsk Missile And Space Complex (PKMTR)
Object type
Payload
Rocket body
Debris
Shape & HBR
Unknown shape, 0.1 m
Radar Cross Section
Small (<0.1 m²)

Expand to show TLE details & history
Last TLE update: 2 days ago

TLE from 2 days ago
0 COSMOS 1275 DEB
1 39967U 81053PD  25287.23251452  .00001838  00000-0  12995-2 0  9997
2 39967  82.9252 216.2532 0030260 158.3992 201.8461 13.97142898577095
Epoch: 2025-10-14T05:34Z
TLE epoch observation values (Epoch: 2025-10-14T05:34:49.254Z)
Latitude
-0.00001°
Longitude
109.52408°
Altitude
927.102 km
Speed
7.378 km/s
True Right ascension
14h 25m 00s
True Declination
0° 00' 00"
Sunlit
Object was in daylight at epoch
Visualization orbit readout
Latitude
Unknown
Longitude
Unknown
Altitude
Unknown
Speed
Unknown
Apparent Right ascension
Unknown
Apparent Declination
Unknown
Sunlit
N/A
Visualization observer readout
Local Sidereal Time
13:04:13
Azimuth
Unknown
Elevation
Unknown
Doppler factor
Unknown
Orbital elements
Apogee altitude
922.851 km
Perigee altitude
878.798 km
Semi-major axis
7,278.961 km
Eccentricity
0.00303
Inclination
82.9252°
RAAN
216.2532°
Arg. of periapsis
158.3992°
True anomaly
201.71752°
Mean anomaly
201.8461°
Eccentric anomaly
201.78176°
Mean motion
3.49493 °/min
Orbital period
103.01 mins
BSTAR
0.0012995
Loading maneuver chart data...
Computing Atmospheric mass density...

Documentation

Showing up to 5 results
|